Flag for Canada Weather past 2 weeks in Rothesay, New Brunswick, Canada

Now
59 °F

Scattered clouds.


Feels Like: 56 °F
Forecast: 44 / 60 °F
Wind: 15 mph from West

Location: Saint John

Current Time: Sep 23, 2014 at 5:23:06 PM

Latest Report: Sep 23, 2014 at 4:00 PM


Visibility: 15 mi

Pressure: 30.12 "Hg

Humidity: 45%

Dew point: 37 °F

Location of RothesayLocation

Historic Weather in Rothesay — Graph

°F

Rothesay temperature yesterday

Maximum temperature yesterday: 66 °F (at 12:00 AM)
Minimum temperature yesterday: 50 °F (at 11:00 PM)
Average temperature yesterday: 62 °F

Past Weeks' High & Low Weather Summary

 TemperatureHumidityPressure
High75 °F (Sep 21, 4:00 PM)100% (Sep 9, 2:00 AM)30.49 "Hg (Sep 9, 2:00 AM)
Low28 °F (Sep 19, 11:00 PM)24% (Sep 19, 6:00 PM)29.40 "Hg (Sep 22, 5:00 AM)
Average53 °F79%30.07 "Hg
* Reported Sep 8 4:00 PM — Sep 23 4:00 PM, Rothesay, Weather by CustomWeather, © 2014

Note: Actual official high and low records may vary slightly from our data, if they occured in-between our weather recording intervals... More about our weather records

Advertising

Rothesay weather history for previous 24 hours

 ConditionsComfort  
Time TempWeatherWind HumidityBarometerVisibility
4:00 PM
Sep 23
59 °FScattered clouds.15 mph45%30.12 "Hg15 mi
3:00 PM59 °FPartly sunny.13 mph45%30.11 "Hg15 mi
2:00 PM57 °FScattered clouds.12 mph44%30.11 "Hg15 mi
1:00 PM55 °FPartly sunny.13 mph47%30.11 "Hg15 mi
12:00 PM54 °FPartly sunny.13 mph51%30.11 "Hg15 mi
11:00 AM52 °FScattered clouds.10 mph54%30.11 "Hg15 mi
10:00 AM50 °FPassing clouds.16 mph58%30.09 "Hg15 mi
9:00 AM46 °FPassing clouds.13 mph71%30.07 "Hg15 mi
8:00 AM45 °FPassing clouds.8 mph76%30.05 "Hg15 mi
7:00 AM43 °FPassing clouds.9 mph87%30.03 "Hg15 mi
6:00 AM45 °FClear.7 mph81%30.00 "Hg15 mi
5:00 AM45 °FClear.7 mph87%29.97 "Hg15 mi
4:00 AM46 °FClear.6 mph82%29.94 "Hg15 mi
3:00 AM46 °FClear.6 mph82%29.92 "Hg15 mi
2:00 AM46 °FClear.2 mph82%29.91 "Hg15 mi
1:00 AM48 °FClear.10 mph76%29.88 "Hg15 mi
12:00 AM48 °FClear.8 mph76%29.86 "Hg15 mi
11:00 PM
Sep 22
50 °FPassing clouds.16 mph71%29.84 "Hg15 mi
10:00 PM52 °FPassing clouds.15 mph72%29.80 "Hg15 mi
9:00 PM55 °FPassing clouds.12 mph67%29.74 "Hg15 mi
8:00 PM59 °FPassing clouds.17 mph63%29.68 "Hg15 mi
7:00 PM63 °FScattered clouds.16 mph68%29.61 "Hg15 mi
6:00 PM61 °FPassing clouds.20 mph88%29.57 "Hg15 mi
5:00 PM59 °FPartly sunny.18 mph94%29.54 "Hg8 mi
Weather by CustomWeather, © 2014

See weather overviewHow to use our weather pages